| time (UTC) | temp C | wind direction | speed KPH | gust KPH | rain 1hr cm | rain 24hr cm | rain mn cm | humidity % | barometer mb |
| 20260510190844 | 16 | 192 | 4.8 | 9.7 | 0.00 | 0.00 | 0.00 | 45 | 1019.5 |
| 20260510190326 | 16 | 128 | 3.2 | 8.0 | 0.00 | 0.00 | 0.00 | 45 | 1019.5 |
| 20260510185819 | 16 | 184 | 1.6 | 9.7 | 0.00 | 0.00 | 0.00 | 44 | 1019.5 |
| 20260510185326 | 16 | 183 | 1.6 | 11.3 | 0.00 | 0.00 | 0.00 | 42 | 1019.6 |
| 20260510184830 | 16 | 190 | 3.2 | 11.3 | 0.00 | 0.00 | 0.00 | 43 | 1019.6 |
| 20260510184336 | 16 | 161 | 3.2 | 11.3 | 0.00 | 0.00 | 0.00 | 45 | 1019.6 |
| 20260510183819 | 16 | 190 | 1.6 | 14.5 | 0.00 | 0.00 | 0.00 | 42 | 1019.6 |
| 20260510183318 | 16 | 188 | 4.8 | 14.5 | 0.00 | 0.00 | 0.00 | 42 | 1019.7 |
| 20260510182830 | 16 | 332 | 3.2 | 6.4 | 0.00 | 0.00 | 0.00 | 42 | 1019.7 |
| 20260510182319 | 16 | 282 | 1.6 | 6.4 | 0.00 | 0.00 | 0.00 | 41 | 1019.6 |
| 20260510181826 | 16 | 313 | 3.2 | 6.4 | 0.00 | 0.00 | 0.00 | 44 | 1019.6 |
| 20260510181334 | 16 | 169 | 3.2 | 8.0 | 0.00 | 0.00 | 0.00 | 43 | 1019.5 |
| 20260510180838 | 16 | 348 | 3.2 | 9.7 | 0.00 | 0.00 | 0.00 | 40 | 1019.5 |
| 20260510180352 | 16 | 134 | 3.2 | 9.7 | 0.00 | 0.00 | 0.00 | 41 | 1019.5 |
| 20260510175831 | 16 | 17 | 3.2 | 9.7 | 0.00 | 0.00 | 0.00 | 41 | 1019.4 |
| 20260510175318 | 16 | 10 | 3.2 | 8.0 | 0.00 | 0.00 | 0.00 | 42 | 1019.3 |
| 20260510174831 | 16 | 344 | 3.2 | 9.7 | 0.00 | 0.00 | 0.00 | 41 | 1019.2 |
| 20260510174335 | 16 | 355 | 4.8 | 12.9 | 0.00 | 0.00 | 0.00 | 41 | 1019.3 |
| 20260510173836 | 16 | 226 | 4.8 | 12.9 | 0.00 | 0.00 | 0.00 | 41 | 1019.1 |
| 20260510173329 | 16 | 293 | 3.2 | 11.3 | 0.00 | 0.00 | 0.00 | 40 | 1019.1 |
| 20260510172830 | 16 | 170 | 3.2 | 11.3 | 0.00 | 0.00 | 0.00 | 45 | 1019.0 |
| 20260510172335 | 16 | 140 | 3.2 | 6.4 | 0.00 | 0.00 | 0.00 | 43 | 1018.9 |
| 20260510171842 | 16 | 259 | 1.6 | 6.4 | 0.00 | 0.00 | 0.00 | 43 | 1018.9 |
| 20260510171328 | 16 | 197 | 1.6 | 8.0 | 0.00 | 0.00 | 0.00 | 45 | 1018.9 |
| 20260510170831 | 16 | 153 | 3.2 | 8.0 | 0.00 | 0.00 | 0.00 | 45 | 1018.9 |
| 20260510170341 | 16 | 32 | 3.2 | 9.7 | 0.00 | 0.00 | 0.00 | 43 | 1019.0 |
| 20260510165822 | 16 | 174 | 4.8 | 9.7 | 0.00 | 0.00 | 0.00 | 44 | 1019.0 |
| 20260510165330 | 16 | 315 | 3.2 | 6.4 | 0.00 | 0.00 | 0.00 | 46 | 1019.0 |
| 20260510164830 | 15 | 222 | 1.6 | 6.4 | 0.00 | 0.00 | 0.00 | 46 | 1019.0 |
| 20260510164339 | 15 | 15 | 3.2 | 8.0 | 0.00 | 0.00 | 0.00 | 44 | 1019.0 |
| 20260510163818 | 15 | 250 | 1.6 | 11.3 | 0.00 | 0.00 | 0.00 | 47 | 1019.0 |
| 20260510163327 | 15 | 158 | 1.6 | 11.3 | 0.00 | 0.00 | 0.00 | 47 | 1018.9 |
| 20260510162857 | 15 | 176 | 4.8 | 9.7 | 0.00 | 0.00 | 0.00 | 48 | 1018.9 |
| 20260510162345 | 15 | 277 | 3.2 | 9.7 | 0.00 | 0.00 | 0.00 | 48 | 1018.8 |
| 20260510161842 | 15 | 156 | 4.8 | 8.0 | 0.00 | 0.00 | 0.00 | 49 | 1018.7 |
| 20260510161334 | 15 | 303 | 3.2 | 4.8 | 0.00 | 0.00 | 0.00 | 48 | 1018.8 |
| 20260510160834 | 14 | 31 | 3.2 | 4.8 | 0.00 | 0.00 | 0.00 | 51 | 1018.7 |
| 20260510160335 | 14 | 192 | 1.6 | 9.7 | 0.00 | 0.00 | 0.00 | 54 | 1018.7 |
| 20260510155841 | 14 | 182 | 4.8 | 12.9 | 0.00 | 0.00 | 0.00 | 54 | 1018.7 |
| 20260510155326 | 13 | 210 | 4.8 | 12.9 | 0.00 | 0.00 | 0.00 | 56 | 1018.6 |
| 20260510154830 | 13 | 107 | 3.2 | 11.3 | 0.00 | 0.00 | 0.00 | 55 | 1018.6 |
| 20260510154319 | 13 | 170 | 4.8 | 11.3 | 0.00 | 0.00 | 0.00 | 53 | 1018.6 |
| 20260510153825 | 13 | 202 | 3.2 | 11.3 | 0.00 | 0.00 | 0.00 | 53 | 1018.6 |
| 20260510153340 | 13 | 202 | 3.2 | 11.3 | 0.00 | 0.00 | 0.00 | 56 | 1018.5 |
| 20260510152850 | 13 | 298 | 1.6 | 4.8 | 0.00 | 0.00 | 0.00 | 56 | 1018.5 |
| 20260510152334 | 12 | 333 | 1.6 | 4.8 | 0.00 | 0.00 | 0.00 | 57 | 1018.4 |
| 20260510151831 | 12 | 178 | 3.2 | 4.8 | 0.00 | 0.00 | 0.00 | 57 | 1018.4 |
| 20260510151337 | 12 | 172 | 1.6 | 8.0 | 0.00 | 0.00 | 0.00 | 59 | 1018.3 |
| 20260510150835 | 12 | 124 | 1.6 | 8.0 | 0.00 | 0.00 | 0.00 | 56 | 1018.3 |
| 20260510150320 | 11 | 52 | 1.6 | 6.4 | 0.00 | 0.00 | 0.00 | 59 | 1018.2 |
| 20260510145835 | 11 | 221 | 1.6 | 6.4 | 0.00 | 0.00 | 0.00 | 60 | 1018.2 |
| 20260510145321 | 11 | 322 | 1.6 | 4.8 | 0.00 | 0.00 | 0.00 | 64 | 1018.1 |
| 20260510144851 | 11 | 323 | 1.6 | 4.8 | 0.00 | 0.00 | 0.00 | 64 | 1018.1 |
| 20260510144332 | 11 | 5 | 1.6 | 8.0 | 0.00 | 0.00 | 0.00 | 63 | 1018.0 |
| 20260510143816 | 10 | 117 | 3.2 | 8.0 | 0.00 | 0.00 | 0.00 | 66 | 1017.9 |
| 20260510143328 | 10 | 13 | 1.6 | 6.4 | 0.00 | 0.00 | 0.00 | 65 | 1017.9 |
| 20260510142833 | 10 | 186 | 1.6 | 6.4 | 0.00 | 0.00 | 0.00 | 67 | 1017.9 |
| 20260510142322 | 10 | 204 | 1.6 | 6.4 | 0.00 | 0.00 | 0.00 | 68 | 1017.7 |
| 20260510141827 | 9 | 337 | 1.6 | 6.4 | 0.00 | 0.00 | 0.00 | 65 | 1017.6 |
| 20260510141333 | 9 | 202 | 1.6 | 8.0 | 0.00 | 0.00 | 0.00 | 72 | 1017.6 |
| 20260510140840 | 8 | 196 | 4.8 | 8.0 | 0.00 | 0.00 | 0.00 | 72 | 1017.6 |
| 20260510140321 | 8 | 162 | 1.6 | 4.8 | 0.00 | 0.00 | 0.00 | 71 | 1017.5 |
| 20260510135823 | 8 | 161 | 3.2 | 4.8 | 0.00 | 0.00 | 0.00 | 70 | 1017.5 |
| 20260510135359 | 8 | 54 | 1.6 | 4.8 | 0.00 | 0.00 | 0.00 | 70 | 1017.5 |
| 20260510134841 | 8 | 77 | 3.2 | 4.8 | 0.00 | 0.00 | 0.00 | 75 | 1017.5 |
| 20260510134349 | 7 | 171 | 1.6 | 4.8 | 0.00 | 0.00 | 0.00 | 79 | 1017.4 |
| 20260510133816 | 7 | 154 | 1.6 | 4.8 | 0.00 | 0.00 | 0.00 | 81 | 1017.3 |
| 20260510133355 | 7 | 152 | 1.6 | 3.2 | 0.00 | 0.00 | 0.00 | 83 | 1017.2 |
| 20260510132818 | 7 | 152 | 0.0 | 3.2 | 0.00 | 0.00 | 0.00 | 85 | 1017.2 |
| 20260510132352 | 7 | 152 | 1.6 | 3.2 | 0.00 | 0.00 | 0.00 | 86 | 1017.1 |
| 20260510131834 | 6 | 148 | 0.0 | 3.2 | 0.00 | 0.00 | 0.00 | 87 | 1017.1 |
| 20260510131338 | 6 | 148 | 0.0 | 3.2 | 0.00 | 0.00 | 0.00 | 88 | 1017.1 |
| 20260510130829 | 6 | 205 | 0.0 | 1.6 | 0.00 | 0.00 | 0.00 | 88 | 1017.0 |
| 20260510130343 | 6 | 205 | 0.0 | 3.2 | 0.00 | 0.00 | 0.00 | 89 | 1017.0 |
| 20260510125839 | 6 | 205 | 1.6 | 3.2 | 0.00 | 0.00 | 0.00 | 89 | 1017.0 |
| 20260510125320 | 5 | 205 | 1.6 | 3.2 | 0.00 | 0.00 | 0.00 | 89 | 1017.0 |
| 20260510124828 | 5 | 205 | 0.0 | 4.8 | 0.00 | 0.00 | 0.00 | 90 | 1017.0 |
| 20260510124336 | 5 | 205 | 0.0 | 3.2 | 0.00 | 0.00 | 0.00 | 90 | 1016.9 |
| 20260510123845 | 5 | 205 | 0.0 | 3.2 | 0.00 | 0.00 | 0.00 | 90 | 1016.9 |
| 20260510123352 | 4 | 211 | 0.0 | 1.6 | 0.00 | 0.00 | 0.00 | 89 | 1016.8 |
| 20260510122838 | 4 | 211 | 0.0 | 0.0 | 0.00 | 0.00 | 0.00 | 89 | 1016.8 |
| 20260510122345 | 4 | 211 | 0.0 | 0.0 | 0.00 | 0.00 | 0.00 | 89 | 1016.7 |
| 20260510121834 | 3 | 211 | 0.0 | 0.0 | 0.00 | 0.00 | 0.00 | 88 | 1016.8 |
| 20260510121347 | 3 | 211 | 0.0 | 0.0 | 0.00 | 0.00 | 0.00 | 88 | 1016.6 |
| 20260510120855 | 3 | 211 | 0.0 | 0.0 | 0.00 | 0.00 | 0.00 | 88 | 1016.6 |
| 20260510120343 | 3 | 211 | 0.0 | 0.0 | 0.00 | 0.00 | 0.00 | 87 | 1016.5 |
| 20260510115828 | 3 | 211 | 0.0 | 0.0 | 0.00 | 0.00 | 0.00 | 87 | 1016.4 |
| 20260510115341 | 3 | 211 | 0.0 | 0.0 | 0.00 | 0.00 | 0.00 | 87 | 1016.4 |
| 20260510114836 | 3 | 211 | 0.0 | 0.0 | 0.00 | 0.00 | 0.00 | 86 | 1016.4 |
| 20260510114322 | 3 | 211 | 0.0 | 0.0 | 0.00 | 0.00 | 0.00 | 86 | 1016.2 |
| 20260510113829 | 3 | 211 | 0.0 | 0.0 | 0.00 | 0.00 | 0.00 | 86 | 1016.1 |
| 20260510113334 | 3 | 211 | 0.0 | 0.0 | 0.00 | 0.00 | 0.00 | 85 | 1016.0 |
| 20260510112840 | 3 | 211 | 0.0 | 0.0 | 0.00 | 0.00 | 0.00 | 85 | 1015.9 |
| 20260510112331 | 3 | 211 | 0.0 | 0.0 | 0.00 | 0.00 | 0.00 | 85 | 1015.9 |
| 20260510111821 | 3 | 211 | 0.0 | 0.0 | 0.00 | 0.00 | 0.00 | 84 | 1015.8 |
| 20260510111331 | 3 | 211 | 0.0 | 0.0 | 0.00 | 0.00 | 0.00 | 84 | 1015.8 |
| 20260510110814 | 3 | 211 | 0.0 | 0.0 | 0.00 | 0.00 | 0.00 | 84 | 1015.7 |
| 20260510110320 | 3 | 211 | 0.0 | 0.0 | 0.00 | 0.00 | 0.00 | 85 | 1015.7 |
| 20260510105817 | 3 | 211 | 0.0 | 0.0 | 0.00 | 0.00 | 0.00 | 84 | 1015.6 |
| 20260510105323 | 3 | 211 | 0.0 | 0.0 | 0.00 | 0.00 | 0.00 | 84 | 1015.6 |
| 20260510104819 | 3 | 211 | 0.0 | 0.0 | 0.00 | 0.00 | 0.00 | 84 | 1015.5 |
| 20260510104326 | 4 | 211 | 0.0 | 0.0 | 0.00 | 0.00 | 0.00 | 84 | 1015.4 |
| 20260510103838 | 4 | 211 | 0.0 | 0.0 | 0.00 | 0.00 | 0.00 | 85 | 1015.4 |
| 20260510103325 | 4 | 211 | 0.0 | 0.0 | 0.00 | 0.00 | 0.00 | 85 | 1015.4 |
| 20260510102839 | 4 | 211 | 0.0 | 0.0 | 0.00 | 0.00 | 0.00 | 85 | 1015.4 |
| 20260510102323 | 4 | 211 | 0.0 | 0.0 | 0.00 | 0.00 | 0.00 | 86 | 1015.4 |
| 20260510101821 | 4 | 211 | 0.0 | 0.0 | 0.00 | 0.00 | 0.00 | 86 | 1015.3 |
| 20260510101333 | 5 | 211 | 0.0 | 0.0 | 0.00 | 0.00 | 0.00 | 86 | 1015.2 |
| 20260510100818 | 5 | 211 | 0.0 | 0.0 | 0.00 | 0.00 | 0.00 | 87 | 1015.2 |
| 20260510100326 | 5 | 211 | 0.0 | 0.0 | 0.00 | 0.00 | 0.00 | 87 | 1015.1 |
| 20260510095828 | 5 | 211 | 0.0 | 0.0 | 0.00 | 0.00 | 0.00 | 87 | 1014.9 |
| 20260510095332 | 5 | 211 | 0.0 | 0.0 | 0.00 | 0.00 | 0.00 | 87 | 1014.9 |
| 20260510094835 | 5 | 211 | 0.0 | 0.0 | 0.00 | 0.00 | 0.00 | 87 | 1014.8 |
| 20260510094324 | 5 | 211 | 0.0 | 0.0 | 0.00 | 0.00 | 0.00 | 87 | 1014.7 |
| 20260510093827 | 5 | 211 | 0.0 | 0.0 | 0.00 | 0.00 | 0.00 | 87 | 1014.6 |
| 20260510093330 | 5 | 211 | 0.0 | 0.0 | 0.00 | 0.00 | 0.00 | 86 | 1014.6 |
| 20260510092830 | 5 | 211 | 0.0 | 0.0 | 0.00 | 0.00 | 0.00 | 85 | 1014.5 |
| 20260510092331 | 5 | 211 | 0.0 | 0.0 | 0.00 | 0.00 | 0.00 | 84 | 1014.4 |
| 20260510091814 | 5 | 211 | 0.0 | 0.0 | 0.00 | 0.00 | 0.00 | 84 | 1014.3 |
| 20260510091322 | 6 | 211 | 0.0 | 0.0 | 0.00 | 0.00 | 0.00 | 84 | 1014.2 |
| 20260510090826 | 6 | 211 | 0.0 | 0.0 | 0.00 | 0.00 | 0.00 | 84 | 1014.2 |
| 20260510090336 | 6 | 211 | 0.0 | 0.0 | 0.00 | 0.00 | 0.00 | 84 | 1014.2 |
| 20260510085842 | 6 | 211 | 0.0 | 1.6 | 0.00 | 0.00 | 0.00 | 85 | 1014.0 |
| 20260510085336 | 6 | 211 | 0.0 | 1.6 | 0.00 | 0.00 | 0.00 | 85 | 1013.9 |
| 20260510084835 | 6 | 211 | 0.0 | 1.6 | 0.00 | 0.00 | 0.00 | 85 | 1014.0 |
| 20260510084324 | 6 | 211 | 0.0 | 1.6 | 0.00 | 0.00 | 0.00 | 84 | 1013.9 |
| 20260510083830 | 6 | 211 | 0.0 | 0.0 | 0.00 | 0.00 | 0.00 | 83 | 1013.8 |
| 20260510083322 | 6 | 211 | 0.0 | 0.0 | 0.00 | 0.00 | 0.00 | 83 | 1013.8 |
| 20260510082828 | 6 | 211 | 0.0 | 0.0 | 0.00 | 0.00 | 0.00 | 83 | 1013.6 |
| 20260510082323 | 7 | 211 | 0.0 | 0.0 | 0.00 | 0.00 | 0.00 | 83 | 1013.5 |
| 20260510081856 | 7 | 211 | 0.0 | 0.0 | 0.00 | 0.00 | 0.00 | 82 | 1013.4 |
| 20260510081319 | 7 | 211 | 0.0 | 0.0 | 0.00 | 0.00 | 0.00 | 83 | 1013.4 |
| 20260510080825 | 7 | 211 | 0.0 | 0.0 | 0.00 | 0.00 | 0.00 | 82 | 1013.3 |
| 20260510080322 | 7 | 211 | 0.0 | 0.0 | 0.00 | 0.00 | 0.00 | 82 | 1013.1 |
| 20260510075818 | 7 | 211 | 0.0 | 0.0 | 0.00 | 0.00 | 0.00 | 81 | 1013.1 |
| 20260510075323 | 7 | 211 | 0.0 | 0.0 | 0.00 | 0.00 | 0.00 | 79 | 1012.9 |
| 20260510074833 | 7 | 211 | 0.0 | 0.0 | 0.00 | 0.00 | 0.00 | 75 | 1013.0 |
| 20260510074339 | 7 | 211 | 0.0 | 1.6 | 0.00 | 0.00 | 0.00 | 72 | 1012.9 |
| 20260510073820 | 7 | 211 | 0.0 | 1.6 | 0.00 | 0.00 | 0.00 | 71 | 1012.8 |
| 20260510073332 | 7 | 211 | 0.0 | 1.6 | 0.00 | 0.00 | 0.00 | 71 | 1012.7 |
| 20260510072822 | 7 | 211 | 0.0 | 1.6 | 0.00 | 0.00 | 0.00 | 72 | 1012.6 |
| 20260510072331 | 7 | 211 | 0.0 | 3.2 | 0.00 | 0.00 | 0.00 | 72 | 1012.6 |
| 20260510071831 | 7 | 211 | 0.0 | 0.0 | 0.00 | 0.00 | 0.00 | 71 | 1012.4 |
| 20260510071321 | 7 | 211 | 0.0 | 0.0 | 0.00 | 0.00 | 0.00 | 72 | 1012.4 |
| 20260510070855 | 7 | 211 | 0.0 | 1.6 | 0.00 | 0.00 | 0.00 | 73 | 1012.4 |
| 20260510070319 | 7 | 211 | 0.0 | 6.4 | 0.00 | 0.00 | 0.00 | 72 | 1012.3 |
| 20260510065822 | 8 | 211 | 0.0 | 6.4 | 0.00 | 0.00 | 0.00 | 72 | 1012.3 |
| 20260510065320 | 8 | 119 | 0.0 | 4.8 | 0.00 | 0.00 | 0.00 | 73 | 1012.2 |
| 20260510064852 | 8 | 119 | 1.6 | 4.8 | 0.00 | 0.00 | 0.00 | 73 | 1012.2 |
| 20260510064321 | 8 | 69 | 0.0 | 8.0 | 0.00 | 0.00 | 0.00 | 74 | 1012.2 |
| 20260510063855 | 8 | 69 | 0.0 | 12.9 | 0.00 | 0.00 | 0.00 | 74 | 1012.3 |
| 20260510063323 | 8 | 161 | 1.6 | 4.8 | 0.00 | 0.00 | 0.00 | 74 | 1012.3 |
| 20260510062833 | 8 | 260 | 1.6 | 6.4 | 0.00 | 0.00 | 0.00 | 76 | 1012.2 |
| 20260510062338 | 8 | 132 | 1.6 | 6.4 | 0.00 | 0.00 | 0.00 | 77 | 1012.2 |
| 20260510061848 | 8 | 213 | 1.6 | 4.8 | 0.00 | 0.00 | 0.00 | 80 | 1012.2 |
| 20260510061331 | 8 | 257 | 1.6 | 4.8 | 0.00 | 0.00 | 0.00 | 82 | 1012.1 |
| 20260510060817 | 8 | 16 | 1.6 | 4.8 | 0.00 | 0.00 | 0.00 | 83 | 1012.0 |
| 20260510060330 | 8 | 299 | 0.0 | 4.8 | 0.00 | 0.00 | 0.00 | 85 | 1012.0 |
| 20260510055828 | 8 | 213 | 1.6 | 8.0 | 0.00 | 0.00 | 0.00 | 86 | 1011.9 |
| 20260510055402 | 8 | 215 | 3.2 | 12.9 | 0.00 | 0.00 | 0.00 | 86 | 1011.7 |
| 20260510054840 | 8 | 272 | 3.2 | 11.3 | 0.00 | 0.00 | 0.00 | 87 | 1011.5 |
| 20260510054328 | 8 | 254 | 0.0 | 4.8 | 0.00 | 0.00 | 0.00 | 87 | 1011.4 |
| 20260510053857 | 8 | 17 | 1.6 | 3.2 | 0.00 | 0.00 | 0.00 | 88 | 1011.3 |
| 20260510053323 | 8 | 15 | 0.0 | 3.2 | 0.00 | 0.00 | 0.00 | 88 | 1011.2 |
| 20260510052852 | 8 | 15 | 0.0 | 1.6 | 0.00 | 0.00 | 0.00 | 88 | 1011.0 |
| 20260510052337 | 8 | 15 | 0.0 | 1.6 | 0.00 | 0.00 | 0.00 | 88 | 1011.0 |
| 20260510051818 | 8 | 15 | 0.0 | 0.0 | 0.00 | 0.00 | 0.00 | 87 | 1010.8 |
| 20260510051324 | 9 | 15 | 0.0 | 1.6 | 0.00 | 0.00 | 0.00 | 86 | 1010.7 |
| 20260510050830 | 9 | 15 | 0.0 | 1.6 | 0.00 | 0.00 | 0.00 | 85 | 1010.6 |
| 20260510050321 | 9 | 15 | 0.0 | 0.0 | 0.00 | 0.00 | 0.00 | 85 | 1010.6 |
| 20260510045822 | 9 | 15 | 0.0 | 0.0 | 0.00 | 0.00 | 0.00 | 85 | 1010.4 |
| 20260510045320 | 9 | 15 | 0.0 | 0.0 | 0.00 | 0.00 | 0.00 | 85 | 1010.4 |
| 20260510044850 | 9 | 15 | 0.0 | 0.0 | 0.00 | 0.00 | 0.00 | 83 | 1010.3 |
| 20260510044338 | 10 | 15 | 0.0 | 0.0 | 0.00 | 0.00 | 0.00 | 81 | 1010.0 |
| 20260510043848 | 10 | 15 | 0.0 | 0.0 | 0.00 | 0.00 | 0.00 | 84 | 1010.0 |
| 20260510043337 | 10 | 15 | 0.0 | 0.0 | 0.00 | 0.00 | 0.00 | 85 | 1009.9 |
| 20260510042823 | 10 | 15 | 0.0 | 0.0 | 0.00 | 0.00 | 0.00 | 84 | 1009.8 |
| 20260510042333 | 10 | 15 | 0.0 | 0.0 | 0.00 | 0.00 | 0.00 | 84 | 1009.7 |
| 20260510041836 | 10 | 15 | 0.0 | 1.6 | 0.00 | 0.00 | 0.00 | 83 | 1009.7 |
| 20260510041341 | 10 | 15 | 0.0 | 1.6 | 0.00 | 0.00 | 0.00 | 83 | 1009.6 |
| 20260510040816 | 10 | 15 | 0.0 | 0.0 | 0.00 | 0.00 | 0.00 | 82 | 1009.4 |
| 20260510040326 | 10 | 15 | 0.0 | 0.0 | 0.00 | 0.00 | 0.00 | 82 | 1009.4 |
| 20260510035845 | 10 | 15 | 0.0 | 1.6 | 0.00 | 0.00 | 0.00 | 82 | 1009.3 |
| 20260510035321 | 10 | 15 | 0.0 | 1.6 | 0.00 | 0.00 | 0.00 | 81 | 1009.2 |
| 20260510034824 | 10 | 15 | 0.0 | 1.6 | 0.00 | 0.00 | 0.00 | 81 | 1009.2 |
| 20260510034336 | 10 | 15 | 0.0 | 1.6 | 0.00 | 0.00 | 0.00 | 80 | 1009.1 |
| 20260510033838 | 10 | 15 | 0.0 | 1.6 | 0.00 | 0.00 | 0.00 | 79 | 1009.1 |
| 20260510033346 | 11 | 15 | 0.0 | 1.6 | 0.00 | 0.00 | 0.00 | 79 | 1009.0 |
| 20260510032828 | 11 | 15 | 0.0 | 1.6 | 0.00 | 0.00 | 0.00 | 78 | 1008.9 |
| 20260510032335 | 11 | 15 | 0.0 | 0.0 | 0.00 | 0.00 | 0.00 | 77 | 1008.9 |
| 20260510031818 | 11 | 15 | 0.0 | 0.0 | 0.00 | 0.00 | 0.00 | 77 | 1008.7 |
| 20260510031321 | 11 | 15 | 0.0 | 0.0 | 0.00 | 0.00 | 0.00 | 75 | 1008.6 |
| 20260510030826 | 11 | 15 | 0.0 | 0.0 | 0.00 | 0.00 | 0.00 | 75 | 1008.5 |
| 20260510030319 | 11 | 15 | 0.0 | 0.0 | 0.00 | 0.00 | 0.00 | 73 | 1008.4 |
| 20260510025821 | 11 | 15 | 0.0 | 1.6 | 0.00 | 0.00 | 0.00 | 73 | 1008.3 |
| 20260510025327 | 11 | 15 | 0.0 | 3.2 | 0.00 | 0.00 | 0.00 | 73 | 1008.4 |
| 20260510024832 | 11 | 15 | 0.0 | 3.2 | 0.00 | 0.00 | 0.00 | 73 | 1008.4 |
| 20260510024335 | 11 | 15 | 0.0 | 1.6 | 0.00 | 0.00 | 0.00 | 72 | 1008.2 |
| 20260510023840 | 12 | 15 | 0.0 | 1.6 | 0.00 | 0.00 | 0.00 | 71 | 1008.2 |
| 20260510023343 | 12 | 15 | 0.0 | 1.6 | 0.00 | 0.00 | 0.00 | 71 | 1008.2 |
| 20260510022836 | 12 | 15 | 0.0 | 1.6 | 0.00 | 0.00 | 0.00 | 71 | 1008.1 |
| 20260510022321 | 12 | 15 | 0.0 | 1.6 | 0.00 | 0.00 | 0.00 | 70 | 1008.1 |
| 20260510021819 | 12 | 15 | 0.0 | 1.6 | 0.00 | 0.00 | 0.00 | 70 | 1007.9 |
| 20260510021324 | 12 | 15 | 0.0 | 1.6 | 0.00 | 0.00 | 0.00 | 69 | 1007.8 |
| 20260510020853 | 12 | 15 | 0.0 | 3.2 | 0.00 | 0.00 | 0.00 | 69 | 1007.7 |
| 20260510020316 | 12 | 15 | 0.0 | 3.2 | 0.00 | 0.00 | 0.00 | 68 | 1007.6 |
| 20260510015826 | 12 | 15 | 0.0 | 1.6 | 0.00 | 0.00 | 0.00 | 69 | 1007.6 |
| 20260510015321 | 12 | 15 | 0.0 | 3.2 | 0.00 | 0.00 | 0.00 | 68 | 1007.6 |
| 20260510014827 | 12 | 15 | 0.0 | 3.2 | 0.00 | 0.00 | 0.00 | 68 | 1007.5 |
| 20260510014334 | 12 | 15 | 0.0 | 4.8 | 0.00 | 0.00 | 0.00 | 67 | 1007.4 |
| 20260510013834 | 13 | 9 | 0.0 | 4.8 | 0.00 | 0.00 | 0.00 | 67 | 1007.3 |
| 20260510013320 | 13 | 236 | 1.6 | 4.8 | 0.00 | 0.00 | 0.00 | 69 | 1007.2 |
| 20260510012836 | 13 | 234 | 1.6 | 4.8 | 0.00 | 0.00 | 0.00 | 68 | 1007.1 |
| 20260510012323 | 13 | 159 | 1.6 | 4.8 | 0.00 | 0.00 | 0.00 | 68 | 1006.9 |
| 20260510011826 | 13 | 202 | 1.6 | 4.8 | 0.00 | 0.00 | 0.00 | 68 | 1006.8 |
| 20260510011331 | 13 | 190 | 1.6 | 4.8 | 0.00 | 0.00 | 0.00 | 68 | 1006.8 |
| 20260510010818 | 13 | 171 | 0.0 | 4.8 | 0.00 | 0.00 | 0.00 | 67 | 1006.7 |
| 20260510010331 | 13 | 169 | 0.0 | 4.8 | 0.00 | 0.00 | 0.00 | 66 | 1006.7 |
| 20260510005821 | 13 | 140 | 0.0 | 4.8 | 0.00 | 0.00 | 0.00 | 65 | 1006.5 |
| 20260510005329 | 13 | 136 | 0.0 | 3.2 | 0.00 | 0.00 | 0.00 | 66 | 1006.4 |
| 20260510004817 | 14 | 136 | 1.6 | 3.2 | 0.00 | 0.00 | 0.00 | 66 | 1006.4 |
| 20260510004355 | 14 | 136 | 0.0 | 4.8 | 0.00 | 0.00 | 0.00 | 64 | 1006.3 |
| 20260510003824 | 14 | 136 | 0.0 | 4.8 | 0.00 | 0.00 | 0.00 | 64 | 1006.4 |
| 20260510003403 | 14 | 136 | 0.0 | 3.2 | 0.00 | 0.00 | 0.00 | 64 | 1006.2 |
| 20260510002853 | 14 | 136 | 1.6 | 3.2 | 0.00 | 0.00 | 0.00 | 63 | 1006.2 |
| 20260510002339 | 14 | 119 | 1.6 | 3.2 | 0.00 | 0.00 | 0.00 | 62 | 1006.1 |
| 20260510001819 | 15 | 118 | 1.6 | 4.8 | 0.00 | 0.00 | 0.00 | 62 | 1006.0 |
| 20260510001324 | 15 | 118 | 1.6 | 4.8 | 0.00 | 0.00 | 0.00 | 62 | 1006.0 |
| 20260510000831 | 15 | 5 | 1.6 | 8.0 | 0.00 | 0.00 | 0.00 | 62 | 1005.9 |
| 20260510000348 | 15 | 246 | 1.6 | 8.0 | 0.00 | 0.00 | 0.00 | 64 | 1005.8 |
| 20260509235831 | 15 | 263 | 1.6 | 8.0 | 0.00 | 0.00 | 0.00 | 64 | 1005.6 |
| 20260509235330 | 15 | 251 | 3.2 | 6.4 | 0.00 | 0.00 | 0.00 | 62 | 1005.6 |
| 20260509234816 | 15 | 153 | 1.6 | 6.4 | 0.00 | 0.00 | 0.00 | 62 | 1005.6 |
| 20260509234325 | 15 | 267 | 3.2 | 6.4 | 0.00 | 0.00 | 0.00 | 62 | 1005.6 |
| 20260509233832 | 15 | 190 | 1.6 | 3.2 | 0.00 | 0.00 | 0.00 | 60 | 1005.5 |
| 20260509233323 | 15 | 190 | 0.0 | 3.2 | 0.00 | 0.00 | 0.00 | 60 | 1005.4 |
| 20260509232856 | 15 | 217 | 0.0 | 4.8 | 0.00 | 0.00 | 0.00 | 58 | 1005.3 |
| 20260509232318 | 15 | 210 | 1.6 | 4.8 | 0.00 | 0.00 | 0.00 | 59 | 1005.2 |
| 20260509231822 | 15 | 210 | 1.6 | 6.4 | 0.00 | 0.00 | 0.00 | 60 | 1005.2 |
| 20260509231334 | 15 | 244 | 3.2 | 8.0 | 0.00 | 0.00 | 0.00 | 58 | 1005.2 |
| 20260509230834 | 15 | 30 | 1.6 | 8.0 | 0.00 | 0.00 | 0.00 | 57 | 1005.0 |
| 20260509230328 | 15 | 249 | 1.6 | 6.4 | 0.00 | 0.00 | 0.00 | 55 | 1005.0 |
| 20260509225819 | 16 | 246 | 1.6 | 8.0 | 0.00 | 0.00 | 0.00 | 55 | 1004.9 |
| 20260509225323 | 16 | 329 | 1.6 | 6.4 | 0.00 | 0.00 | 0.00 | 55 | 1004.8 |
| 20260509224824 | 16 | 280 | 1.6 | 9.7 | 0.00 | 0.00 | 0.00 | 55 | 1004.8 |
| 20260509224358 | 16 | 296 | 3.2 | 9.7 | 0.00 | 0.00 | 0.00 | 56 | 1004.7 |
| 20260509223827 | 17 | 163 | 3.2 | 8.0 | 0.00 | 0.00 | 0.00 | 57 | 1004.6 |
| 20260509223343 | 17 | 279 | 4.8 | 8.0 | 0.00 | 0.00 | 0.00 | 58 | 1004.6 |
| 20260509222845 | 17 | 200 | 4.8 | 9.7 | 0.00 | 0.00 | 0.00 | 55 | 1004.4 |
| 20260509222327 | 18 | 254 | 4.8 | 9.7 | 0.00 | 0.00 | 0.00 | 56 | 1004.4 |
| 20260509221830 | 18 | 217 | 4.8 | 8.0 | 0.00 | 0.00 | 0.00 | 60 | 1004.2 |
| 20260509221334 | 18 | 208 | 3.2 | 6.4 | 0.00 | 0.00 | 0.00 | 63 | 1004.1 |
| 20260509220818 | 19 | 270 | 3.2 | 6.4 | 0.00 | 0.00 | 0.00 | 62 | 1004.1 |
| 20260509220320 | 19 | 163 | 1.6 | 8.0 | 0.00 | 0.00 | 0.00 | 63 | 1004.0 |
| 20260509215822 | 19 | 204 | 3.2 | 8.0 | 0.00 | 0.00 | 0.00 | 63 | 1003.9 |
| 20260509215331 | 19 | 164 | 1.6 | 8.0 | 0.00 | 0.00 | 0.00 | 64 | 1003.2 |
| 20260509214837 | 20 | 175 | 1.6 | 6.4 | 0.00 | 0.00 | 0.00 | 64 | 1003.0 |
| 20260509214327 | 20 | 175 | 1.6 | 8.0 | 0.00 | 0.00 | 0.00 | 64 | 1003.0 |
| 20260509213829 | 20 | 173 | 3.2 | 8.0 | 0.00 | 0.00 | 0.00 | 66 | 1002.9 |
| 20260509213338 | 20 | 187 | 3.2 | 6.4 | 0.00 | 0.00 | 0.00 | 65 | 1003.0 |
| 20260509212837 | 20 | 159 | 0.0 | 9.7 | 0.00 | 0.00 | 0.00 | 65 | 1002.9 |
| 20260509212317 | 20 | 180 | 3.2 | 9.7 | 0.00 | 0.00 | 0.00 | 66 | 1002.9 |
| 20260509211843 | 20 | 192 | 3.2 | 9.7 | 0.00 | 0.00 | 0.00 | 66 | 1002.9 |
| 20260509211324 | 20 | 155 | 3.2 | 6.4 | 0.00 | 0.00 | 0.00 | 65 | 1003.0 |
| 20260509210824 | 20 | 205 | 1.6 | 6.4 | 0.00 | 0.00 | 0.00 | 64 | 1003.0 |
| 20260509210334 | 20 | 163 | 1.6 | 6.4 | 0.00 | 0.00 | 0.00 | 65 | 1003.0 |
| 20260509205837 | 20 | 161 | 3.2 | 14.5 | 0.00 | 0.00 | 0.00 | 65 | 1002.9 |
| 20260509205343 | 20 | 163 | 6.4 | 14.5 | 0.00 | 0.00 | 0.00 | 66 | 1003.0 |
| 20260509204833 | 20 | 178 | 3.2 | 8.0 | 0.00 | 0.00 | 0.00 | 65 | 1003.0 |
| 20260509204343 | 20 | 188 | 3.2 | 8.0 | 0.00 | 0.00 | 0.00 | 63 | 1003.0 |
| 20260509203852 | 20 | 167 | 3.2 | 9.7 | 0.00 | 0.00 | 0.00 | 64 | 1003.0 |
| 20260509203320 | 20 | 204 | 1.6 | 8.0 | 0.00 | 0.00 | 0.00 | 63 | 1003.0 |
| 20260509202849 | 20 | 175 | 3.2 | 8.0 | 0.00 | 0.00 | 0.00 | 64 | 1003.0 |
| 20260509202329 | 20 | 229 | 3.2 | 8.0 | 0.00 | 0.00 | 0.00 | 64 | 1003.0 |
| 20260509201829 | 20 | 199 | 3.2 | 8.0 | 0.00 | 0.00 | 0.00 | 66 | 1003.0 |
| 20260509201335 | 20 | 157 | 1.6 | 8.0 | 0.00 | 0.00 | 0.00 | 66 | 1003.0 |
| 20260509200819 | 19 | 143 | 3.2 | 8.0 | 0.00 | 0.00 | 0.00 | 65 | 1003.0 |
| 20260509200352 | 19 | 159 | 3.2 | 9.7 | 0.00 | 0.00 | 0.00 | 67 | 1002.9 |
| 20260509195817 | 19 | 197 | 1.6 | 8.0 | 0.00 | 0.00 | 0.00 | 68 | 1003.0 |
| 20260509195329 | 18 | 230 | 3.2 | 8.0 | 0.00 | 0.00 | 0.00 | 69 | 1003.0 |
| 20260509194830 | 18 | 213 | 3.2 | 9.7 | 0.00 | 0.00 | 0.00 | 70 | 1003.0 |
| 20260509194334 | 18 | 204 | 4.8 | 11.3 | 0.00 | 0.00 | 0.00 | 70 | 1003.1 |
| 20260509193839 | 17 | 238 | 4.8 | 11.3 | 0.00 | 0.00 | 0.00 | 71 | 1003.1 |
| 20260509193337 | 17 | 152 | 1.6 | 8.0 | 0.00 | 0.00 | 0.00 | 73 | 1003.1 |
| 20260509192826 | 17 | 234 | 1.6 | 8.0 | 0.00 | 0.00 | 0.00 | 75 | 1003.1 |
| 20260509192316 | 16 | 169 | 4.8 | 8.0 | 0.00 | 0.00 | 0.00 | 77 | 1003.3 |
| 20260509191851 | 16 | 173 | 4.8 | 8.0 | 0.00 | 0.00 | 0.00 | 77 | 1003.2 |
| 20260509191333 | 16 | 261 | 1.6 | 12.9 | 0.00 | 0.00 | 0.00 | 78 | 1003.3 |